Time,TemperatureF,DewpointF,PressureIn,WindDirection,WindDirectionDegrees,WindSpeedMPH,WindSpeedGustMPH,Humidity,HourlyPrecipIn,Conditions,Clouds,dailyrainin,SolarRadiationWatts/m^2,SoftwareType,DateUTC
2013-01-18 00:00:00,26.4,12.8,30.13,NNE,26,2.0,7.0,56,0.00,,---,0.00,0.00,VWS V14.00,2013-01-18 05:00:00,
2013-01-18 00:01:00,26.4,12.8,30.13,NNE,25,4.0,7.0,56,0.00,,---,0.00,0.00,VWS V14.00,2013-01-18 05:01:00,
2013-01-18 00:06:00,26.4,14.0,30.14,North,10,1.0,4.0,59,0.00,,---,0.00,0.00,VWS V14.00,2013-01-18 05:06:00,
2013-01-18 00:11:00,26.3,13.6,30.15,NNE,30,0.0,1.0,58,0.00,,---,0.00,0.00,VWS V14.00,2013-01-18 05:11:00,
2013-01-18 00:16:00,26.3,13.6,30.14,NE,40,2.0,2.0,58,0.00,,---,0.00,0.00,VWS V14.00,2013-01-18 05:16:00,
2013-01-18 00:21:00,26.3,14.7,30.13,North,5,5.0,5.0,61,0.00,,---,0.00,0.00,VWS V14.00,2013-01-18 05:21:00,
2013-01-18 00:26:00,26.1,13.8,30.12,NNE,30,6.0,6.0,59,0.00,,---,0.00,0.00,VWS V14.00,2013-01-18 05:26:00,
2013-01-18 00:31:00,26.1,13.8,30.12,North,360,5.0,5.0,59,0.00,,---,0.00,0.00,VWS V14.00,2013-01-18 05:31:00,
2013-01-18 00:36:00,26.1,14.5,30.13,NNE,24,3.0,4.0,61,0.00,,---,0.00,0.00,VWS V14.00,2013-01-18 05:36:00,
2013-01-18 00:41:00,26.0,13.3,30.13,NE,48,7.0,12.0,58,0.00,,---,0.00,0.00,VWS V14.00,2013-01-18 05:41:00,
2013-01-18 00:46:00,25.8,11.0,30.13,North,5,4.0,5.0,53,0.00,,---,0.00,0.00,VWS V14.00,2013-01-18 05:46:00,
2013-01-18 00:51:00,25.8,12.3,30.13,NNE,31,2.0,2.0,56,0.00,,---,0.00,0.00,VWS V14.00,2013-01-18 05:51:00,
2013-01-18 00:56:00,25.8,12.3,30.12,NNE,13,3.0,5.0,56,0.00,,---,0.00,0.00,VWS V14.00,2013-01-18 05:56:00,
2013-01-18 01:01:00,25.7,13.0,30.10,NE,36,2.0,2.0,58,0.00,,---,0.00,0.00,VWS V14.00,2013-01-18 06:01:00,
2013-01-18 01:06:00,25.6,11.3,30.11,North,11,10.0,10.0,54,0.00,,---,0.00,0.00,VWS V14.00,2013-01-18 06:06:00,
2013-01-18 01:11:00,25.4,11.1,30.12,ENE,59,0.0,1.0,54,0.00,,---,0.00,0.00,VWS V14.00,2013-01-18 06:11:00,
2013-01-18 01:16:00,25.4,12.3,30.14,NNE,15,5.0,5.0,57,0.00,,---,0.00,0.00,VWS V14.00,2013-01-18 06:16:00,
2013-01-18 01:21:00,25.4,12.3,30.15,North,360,4.0,5.0,57,0.00,,---,0.00,0.00,VWS V14.00,2013-01-18 06:21:00,
2013-01-18 01:26:00,25.4,12.3,30.16,NE,43,3.0,4.0,57,0.00,,---,0.00,0.00,VWS V14.00,2013-01-18 06:26:00,
2013-01-18 01:31:00,25.3,11.4,30.16,NNE,18,1.0,4.0,55,0.00,,---,0.00,0.00,VWS V14.00,2013-01-18 06:31:00,
2013-01-18 01:36:00,25.3,12.6,30.16,NE,43,2.0,4.0,58,0.00,,---,0.00,0.00,VWS V14.00,2013-01-18 06:36:00,
2013-01-18 01:41:00,25.3,13.0,30.14,NNE,33,2.0,4.0,59,0.00,,---,0.00,0.00,VWS V14.00,2013-01-18 06:41:00,
2013-01-18 01:46:00,25.1,11.2,30.14,NNE,18,6.0,6.0,55,0.00,,---,0.00,0.00,VWS V14.00,2013-01-18 06:46:00,
2013-01-18 01:51:00,25.1,12.0,30.16,NW,322,2.0,3.0,57,0.00,,---,0.00,0.00,VWS V14.00,2013-01-18 06:51:00,
2013-01-18 01:56:00,25.1,12.0,30.17,NNE,17,2.0,3.0,57,0.00,,---,0.00,0.00,VWS V14.00,2013-01-18 06:56:00,
2013-01-18 02:01:00,25.1,12.0,30.16,NNE,24,1.0,4.0,57,0.00,,---,0.00,0.00,VWS V14.00,2013-01-18 07:01:00,
2013-01-18 02:06:00,25.1,12.0,30.17,NNE,22,0.0,0.0,57,0.00,,---,0.00,0.00,VWS V14.00,2013-01-18 07:06:00,
2013-01-18 02:11:00,25.1,12.4,30.18,North,5,4.0,4.0,58,0.00,,---,0.00,0.00,VWS V14.00,2013-01-18 07:11:00,
2013-01-18 02:16:00,25.1,12.0,30.17,North,355,1.0,4.0,57,0.00,,---,0.00,0.00,VWS V14.00,2013-01-18 07:16:00,
2013-01-18 02:21:00,25.0,12.7,30.16,NE,36,1.0,3.0,59,0.00,,---,0.00,0.00,VWS V14.00,2013-01-18 07:21:00,
2013-01-18 02:26:00,25.0,12.7,30.17,NE,55,4.0,6.0,59,0.00,,---,0.00,0.00,VWS V14.00,2013-01-18 07:26:00,
2013-01-18 02:31:00,25.0,12.3,30.17,NNE,27,2.0,2.0,58,0.00,,---,0.00,0.00,VWS V14.00,2013-01-18 07:31:00,
2013-01-18 02:36:00,25.0,12.7,30.18,NNE,16,2.0,3.0,59,0.00,,---,0.00,0.00,VWS V14.00,2013-01-18 07:36:00,
2013-01-18 02:41:00,25.0,12.7,30.17,North,11,2.0,5.0,59,0.00,,---,0.00,0.00,VWS V14.00,2013-01-18 07:41:00,
2013-01-18 02:46:00,25.0,13.1,30.17,North,349,3.0,3.0,60,0.00,,---,0.00,0.00,VWS V14.00,2013-01-18 07:46:00,
2013-01-18 02:51:00,25.0,12.7,30.17,NNE,21,2.0,2.0,59,0.00,,---,0.00,0.00,VWS V14.00,2013-01-18 07:51:00,
2013-01-18 02:56:00,24.8,12.1,30.17,North,351,1.0,3.0,58,0.00,,---,0.00,0.00,VWS V14.00,2013-01-18 07:56:00,
2013-01-18 03:01:00,24.8,13.3,30.17,North,355,3.0,5.0,61,0.00,,---,0.00,0.00,VWS V14.00,2013-01-18 08:01:00,
2013-01-18 03:06:00,24.7,11.6,30.16,NNE,27,9.0,9.0,57,0.00,,---,0.00,0.00,VWS V14.00,2013-01-18 08:06:00,
2013-01-18 03:11:00,24.7,13.2,30.16,NNE,23,2.0,2.0,61,0.00,,---,0.00,0.00,VWS V14.00,2013-01-18 08:11:00,
2013-01-18 03:16:00,24.5,12.2,30.18,NE,38,3.0,7.0,59,0.00,,---,0.00,0.00,VWS V14.00,2013-01-18 08:16:00,
2013-01-18 03:21:00,24.4,12.1,30.18,NE,34,3.0,7.0,59,0.00,,---,0.00,0.00,VWS V14.00,2013-01-18 08:21:00,
2013-01-18 03:26:00,24.2,12.3,30.18,NNE,20,6.0,6.0,60,0.00,,---,0.00,0.00,VWS V14.00,2013-01-18 08:26:00,
2013-01-18 03:31:00,24.1,11.9,30.18,NNE,14,2.0,3.0,59,0.00,,---,0.00,0.00,VWS V14.00,2013-01-18 08:31:00,
2013-01-18 03:36:00,23.9,11.7,30.18,NNW,333,6.0,7.0,59,0.00,,---,0.00,0.00,VWS V14.00,2013-01-18 08:36:00,
2013-01-18 03:41:00,23.9,11.7,30.18,North,360,2.0,3.0,59,0.00,,---,0.00,0.00,VWS V14.00,2013-01-18 08:41:00,
2013-01-18 03:46:00,23.8,12.3,30.18,NW,326,4.0,4.0,61,0.00,,---,0.00,0.00,VWS V14.00,2013-01-18 08:46:00,
2013-01-18 03:51:00,23.6,10.2,30.18,NE,44,3.0,3.0,56,0.00,,---,0.00,0.00,VWS V14.00,2013-01-18 08:51:00,
2013-01-18 03:56:00,23.6,11.4,30.18,NW,315,10.0,12.0,59,0.00,,---,0.00,0.00,VWS V14.00,2013-01-18 08:56:00,
2013-01-18 04:01:00,23.5,10.9,30.18,NW,326,10.0,10.0,58,0.00,,---,0.00,0.00,VWS V14.00,2013-01-18 09:01:00,
2013-01-18 04:06:00,23.5,10.1,30.19,NNW,346,2.0,3.0,56,0.00,,---,0.00,0.00,VWS V14.00,2013-01-18 09:06:00,
2013-01-18 04:11:00,23.5,11.3,30.20,NNE,15,1.0,3.0,59,0.00,,---,0.00,0.00,VWS V14.00,2013-01-18 09:11:00,
2013-01-18 04:16:00,23.3,10.3,30.20,NE,34,4.0,5.0,57,0.00,,---,0.00,0.00,VWS V14.00,2013-01-18 09:16:00,
2013-01-18 04:21:00,23.3,10.7,30.20,NNE,22,1.0,2.0,58,0.00,,---,0.00,0.00,VWS V14.00,2013-01-18 09:21:00,
2013-01-18 04:26:00,23.2,10.2,30.20,NNE,25,5.0,6.0,57,0.00,,---,0.00,0.00,VWS V14.00,2013-01-18 09:26:00,
2013-01-18 04:31:00,23.2,10.6,30.21,North,349,2.0,3.0,58,0.00,,---,0.00,0.00,VWS V14.00,2013-01-18 09:31:00,
2013-01-18 04:36:00,23.0,10.8,30.21,NNE,12,4.0,4.0,59,0.00,,---,0.00,0.00,VWS V14.00,2013-01-18 09:36:00,
2013-01-18 04:41:00,22.9,10.7,30.22,NE,36,2.0,2.0,59,0.00,,---,0.00,0.00,VWS V14.00,2013-01-18 09:41:00,
2013-01-18 04:46:00,22.5,9.2,30.22,NNW,334,4.0,5.0,56,0.00,,---,0.00,0.00,VWS V14.00,2013-01-18 09:46:00,
2013-01-18 04:51:00,22.4,9.1,30.22,NNE,15,1.0,3.0,56,0.00,,---,0.00,0.00,VWS V14.00,2013-01-18 09:51:00,
2013-01-18 04:56:00,22.2,8.5,30.23,North,11,4.0,7.0,55,0.00,,---,0.00,0.00,VWS V14.00,2013-01-18 09:56:00,
2013-01-18 05:01:00,22.2,9.3,30.23,NE,36,3.0,4.0,57,0.00,,---,0.00,0.00,VWS V14.00,2013-01-18 10:01:00,
2013-01-18 05:06:00,21.9,9.4,30.24,NNW,348,3.0,3.0,58,0.00,,---,0.00,0.00,VWS V14.00,2013-01-18 10:06:00,
2013-01-18 05:11:00,21.8,8.9,30.24,North,360,4.0,4.0,57,0.00,,---,0.00,0.00,VWS V14.00,2013-01-18 10:11:00,
2013-01-18 05:16:00,21.6,9.1,30.25,North,360,12.0,12.0,58,0.00,,---,0.00,0.00,VWS V14.00,2013-01-18 10:16:00,
2013-01-18 05:21:00,21.6,9.1,30.25,NE,42,2.0,2.0,58,0.00,,---,0.00,0.00,VWS V14.00,2013-01-18 10:21:00,
2013-01-18 05:26:00,21.4,9.7,30.25,NNE,28,0.0,0.0,60,0.00,,---,0.00,0.00,VWS V14.00,2013-01-18 10:26:00,
2013-01-18 05:31:00,21.3,9.6,30.26,NNE,25,4.0,4.0,60,0.00,,---,0.00,0.00,VWS V14.00,2013-01-18 10:31:00,
2013-01-18 05:36:00,21.1,9.4,30.26,NNW,330,6.0,7.0,60,0.00,,---,0.00,0.00,VWS V14.00,2013-01-18 10:36:00,
2013-01-18 05:41:00,21.1,9.0,30.28,NW,324,2.0,2.0,59,0.00,,---,0.00,0.00,VWS V14.00,2013-01-18 10:41:00,
2013-01-18 05:46:00,21.0,9.3,30.29,NW,323,3.0,3.0,60,0.00,,---,0.00,0.00,VWS V14.00,2013-01-18 10:46:00,
2013-01-18 05:51:00,20.8,9.5,30.29,NNW,328,2.0,2.0,61,0.00,,---,0.00,0.00,VWS V14.00,2013-01-18 10:51:00,
2013-01-18 05:56:00,20.6,10.0,30.29,NNW,337,2.0,2.0,63,0.00,,---,0.00,0.00,VWS V14.00,2013-01-18 10:56:00,
2013-01-18 06:01:00,20.5,9.6,30.30,NNW,338,4.0,4.0,62,0.00,,---,0.00,0.00,VWS V14.00,2013-01-18 11:01:00,
2013-01-18 06:06:00,20.3,9.4,30.30,NNE,24,1.0,5.0,62,0.00,,---,0.00,0.00,VWS V14.00,2013-01-18 11:06:00,
2013-01-18 06:11:00,20.2,8.9,30.30,NNW,335,3.0,8.0,61,0.00,,---,0.00,0.00,VWS V14.00,2013-01-18 11:11:00,
2013-01-18 06:16:00,20.2,9.6,30.31,NNE,24,4.0,10.0,63,0.00,,---,0.00,0.00,VWS V14.00,2013-01-18 11:16:00,
2013-01-18 06:21:00,20.0,9.1,30.32,NE,44,0.0,2.0,62,0.00,,---,0.00,0.00,VWS V14.00,2013-01-18 11:21:00,
2013-01-18 06:26:00,19.9,9.7,30.32,NE,46,2.0,4.0,64,0.00,,---,0.00,0.00,VWS V14.00,2013-01-18 11:26:00,
2013-01-18 06:31:00,19.7,8.8,30.32,NE,49,1.0,7.0,62,0.00,,---,0.00,0.00,VWS V14.00,2013-01-18 11:31:00,
2013-01-18 06:36:00,19.5,8.3,30.33,NNE,19,2.0,3.0,61,0.00,,---,0.00,0.00,VWS V14.00,2013-01-18 11:36:00,
2013-01-18 06:41:00,19.4,8.2,30.33,NE,54,9.0,12.0,61,0.00,,---,0.00,0.00,VWS V14.00,2013-01-18 11:41:00,
2013-01-18 06:46:00,19.4,7.4,30.34,NE,40,7.0,7.0,59,0.00,,---,0.00,0.00,VWS V14.00,2013-01-18 11:46:00,
2013-01-18 06:51:00,19.2,7.2,30.35,North,350,3.0,6.0,59,0.00,,---,0.00,0.00,VWS V14.00,2013-01-18 11:51:00,
2013-01-18 06:56:00,19.2,7.2,30.35,WNW,290,9.0,10.0,59,0.00,,---,0.00,0.00,VWS V14.00,2013-01-18 11:56:00,
2013-01-18 07:01:00,19.1,6.8,30.36,ENE,60,11.0,15.0,58,0.00,,---,0.00,0.00,VWS V14.00,2013-01-18 12:01:00,
2013-01-18 07:06:00,18.9,5.8,30.37,NNW,340,7.0,12.0,56,0.00,,---,0.00,0.00,VWS V14.00,2013-01-18 12:06:00,
2013-01-18 07:11:00,18.9,6.9,30.37,North,351,4.0,7.0,59,0.00,,---,0.00,0.00,VWS V14.00,2013-01-18 12:11:00,
2013-01-18 07:16:00,18.8,6.9,30.38,NE,35,2.0,6.0,59,0.00,,---,0.00,0.00,VWS V14.00,2013-01-18 12:16:00,
2013-01-18 07:21:00,18.6,5.9,30.39,WNW,291,10.0,12.0,57,0.00,,---,0.00,5.00,VWS V14.00,2013-01-18 12:21:00,
2013-01-18 07:26:00,18.6,6.3,30.39,NNW,348,4.0,9.0,58,0.00,,---,0.00,7.00,VWS V14.00,2013-01-18 12:26:00,
2013-01-18 07:31:00,18.4,5.7,30.40,NNE,25,1.0,6.0,57,0.00,,---,0.00,9.00,VWS V14.00,2013-01-18 12:31:00,
2013-01-18 07:36:00,18.4,5.3,30.40,North,5,4.0,10.0,56,0.00,,---,0.00,9.00,VWS V14.00,2013-01-18 12:36:00,
2013-01-18 07:41:00,18.3,4.8,30.40,NNE,16,3.0,3.0,55,0.00,,---,0.00,11.00,VWS V14.00,2013-01-18 12:41:00,
2013-01-18 07:46:00,18.3,5.6,30.41,NW,315,3.0,10.0,57,0.00,,---,0.00,12.00,VWS V14.00,2013-01-18 12:46:00,
2013-01-18 07:51:00,18.1,5.1,30.41,NE,44,10.0,13.0,56,0.00,,---,0.00,14.00,VWS V14.00,2013-01-18 12:51:00,
2013-01-18 07:56:00,18.1,4.3,30.42,NW,323,6.0,10.0,54,0.00,,---,0.00,16.00,VWS V14.00,2013-01-18 12:56:00,
2013-01-18 08:01:00,18.1,5.1,30.42,NE,40,9.0,11.0,56,0.00,,---,0.00,16.00,VWS V14.00,2013-01-18 13:01:00,
2013-01-18 08:06:00,18.0,3.8,30.43,NNW,335,4.0,7.0,53,0.00,,---,0.00,18.00,VWS V14.00,2013-01-18 13:06:00,
2013-01-18 08:11:00,18.0,3.3,30.43,NNE,31,10.0,10.0,52,0.00,,---,0.00,19.00,VWS V14.00,2013-01-18 13:11:00,
2013-01-18 08:16:00,18.0,2.5,30.44,NNW,333,2.0,11.0,50,0.00,,---,0.00,19.00,VWS V14.00,2013-01-18 13:16:00,
2013-01-18 08:21:00,18.0,3.3,30.44,North,5,3.0,12.0,52,0.00,,---,0.00,21.00,VWS V14.00,2013-01-18 13:21:00,
2013-01-18 08:26:00,18.0,2.1,30.45,WNW,291,4.0,6.0,49,0.00,,---,0.00,21.00,VWS V14.00,2013-01-18 13:26:00,
2013-01-18 08:31:00,18.0,2.9,30.45,NW,316,6.0,11.0,51,0.00,,---,0.00,23.00,VWS V14.00,2013-01-18 13:31:00,
2013-01-18 08:36:00,18.1,2.6,30.45,WNW,302,10.0,18.0,50,0.00,,---,0.00,23.00,VWS V14.00,2013-01-18 13:36:00,
2013-01-18 08:41:00,18.1,2.2,30.46,NW,323,3.0,10.0,49,0.00,,---,0.00,23.00,VWS V14.00,2013-01-18 13:41:00,
2013-01-18 08:46:00,18.1,2.2,30.46,NW,325,12.0,13.0,49,0.00,,---,0.00,25.00,VWS V14.00,2013-01-18 13:46:00,
2013-01-18 08:51:00,18.3,2.3,30.47,North,5,1.0,6.0,49,0.00,,---,0.00,25.00,VWS V14.00,2013-01-18 13:51:00,
2013-01-18 08:56:00,18.3,2.3,30.47,NNW,330,9.0,11.0,49,0.00,,---,0.00,25.00,VWS V14.00,2013-01-18 13:56:00,
2013-01-18 09:01:00,18.3,2.3,30.47,NNW,345,2.0,8.0,49,0.00,,---,0.00,25.00,VWS V14.00,2013-01-18 14:01:00,
2013-01-18 09:06:00,18.4,2.0,30.47,North,360,6.0,6.0,48,0.00,,---,0.00,26.00,VWS V14.00,2013-01-18 14:06:00,
2013-01-18 09:11:00,18.4,1.5,30.47,NNE,28,12.0,12.0,47,0.00,,---,0.00,26.00,VWS V14.00,2013-01-18 14:11:00,
2013-01-18 09:16:00,18.4,1.1,30.48,ENE,67,5.0,11.0,46,0.00,,---,0.00,26.00,VWS V14.00,2013-01-18 14:16:00,
2013-01-18 09:21:00,18.6,0.8,30.48,North,5,1.0,3.0,45,0.00,,---,0.00,26.00,VWS V14.00,2013-01-18 14:21:00,
2013-01-18 09:26:00,18.9,2.0,30.48,West,268,7.0,15.0,47,0.00,,---,0.00,28.00,VWS V14.00,2013-01-18 14:26:00,
2013-01-18 09:31:00,19.1,1.7,30.48,WNW,296,3.0,12.0,46,0.00,,---,0.00,28.00,VWS V14.00,2013-01-18 14:31:00,
2013-01-18 09:36:00,19.1,0.8,30.49,NNE,20,4.0,5.0,44,0.00,,---,0.00,28.00,VWS V14.00,2013-01-18 14:36:00,
2013-01-18 09:41:00,18.9,1.1,30.49,NW,304,7.0,9.0,45,0.00,,---,0.00,28.00,VWS V14.00,2013-01-18 14:41:00,
2013-01-18 09:46:00,18.9,1.5,30.50,NNW,348,3.0,10.0,46,0.00,,---,0.00,30.00,VWS V14.00,2013-01-18 14:46:00,
2013-01-18 09:51:00,19.1,2.2,30.50,NE,42,1.0,10.0,47,0.00,,---,0.00,30.00,VWS V14.00,2013-01-18 14:51:00,
2013-01-18 09:56:00,19.1,1.3,30.51,North,5,2.0,5.0,45,0.00,,---,0.00,30.00,VWS V14.00,2013-01-18 14:56:00,
2013-01-18 10:01:00,19.4,2.0,30.51,NW,320,4.0,5.0,46,0.00,,---,0.00,30.00,VWS V14.00,2013-01-18 15:01:00,
2013-01-18 10:06:00,19.5,2.1,30.51,NW,307,9.0,11.0,46,0.00,,---,0.00,30.00,VWS V14.00,2013-01-18 15:06:00,
2013-01-18 10:11:00,19.5,1.6,30.51,NNW,338,4.0,10.0,45,0.00,,---,0.00,32.00,VWS V14.00,2013-01-18 15:11:00,
2013-01-18 10:16:00,19.4,1.1,30.52,NNE,12,2.0,10.0,44,0.00,,---,0.00,32.00,VWS V14.00,2013-01-18 15:16:00,
2013-01-18 10:21:00,19.5,1.6,30.52,NNE,30,9.0,10.0,45,0.00,,---,0.00,32.00,VWS V14.00,2013-01-18 15:21:00,
2013-01-18 10:26:00,19.7,2.3,30.52,WNW,285,6.0,10.0,46,0.00,,---,0.00,32.00,VWS V14.00,2013-01-18 15:26:00,
2013-01-18 10:31:00,19.9,2.5,30.52,North,5,2.0,7.0,46,0.00,,---,0.00,32.00,VWS V14.00,2013-01-18 15:31:00,
2013-01-18 10:36:00,20.2,3.7,30.52,NNW,332,11.0,11.0,48,0.00,,---,0.00,32.00,VWS V14.00,2013-01-18 15:36:00,
2013-01-18 10:41:00,20.3,2.4,30.52,NW,317,15.0,20.0,45,0.00,,---,0.00,32.00,VWS V14.00,2013-01-18 15:41:00,
2013-01-18 10:46:00,20.2,1.8,30.52,NW,326,13.0,19.0,44,0.00,,---,0.00,32.00,VWS V14.00,2013-01-18 15:46:00,
2013-01-18 10:51:00,20.2,1.3,30.52,NNE,16,9.0,15.0,43,0.00,,---,0.00,33.00,VWS V14.00,2013-01-18 15:51:00,
2013-01-18 10:56:00,20.0,0.6,30.52,NNW,329,6.0,12.0,42,0.00,,---,0.00,33.00,VWS V14.00,2013-01-18 15:56:00,
2013-01-18 11:01:00,20.2,0.8,30.52,North,5,4.0,13.0,42,0.00,,---,0.00,33.00,VWS V14.00,2013-01-18 16:01:00,
2013-01-18 11:06:00,20.3,1.4,30.52,NNE,32,13.0,16.0,43,0.00,,---,0.00,33.00,VWS V14.00,2013-01-18 16:06:00,
2013-01-18 11:11:00,20.3,0.9,30.52,WNW,296,4.0,7.0,42,0.00,,---,0.00,33.00,VWS V14.00,2013-01-18 16:11:00,
2013-01-18 11:16:00,20.5,1.1,30.52,West,272,10.0,11.0,42,0.00,,---,0.00,33.00,VWS V14.00,2013-01-18 16:16:00,
2013-01-18 11:21:00,20.6,0.1,30.52,NW,326,9.0,16.0,40,0.00,,---,0.00,33.00,VWS V14.00,2013-01-18 16:21:00,
2013-01-18 11:26:00,20.5,-0.5,30.52,NNW,339,3.0,17.0,39,0.00,,---,0.00,33.00,VWS V14.00,2013-01-18 16:26:00,
2013-01-18 11:31:00,20.5,0.6,30.52,North,5,17.0,18.0,41,0.00,,---,0.00,33.00,VWS V14.00,2013-01-18 16:31:00,
2013-01-18 11:36:00,20.5,0.0,30.51,NE,38,5.0,7.0,40,0.00,,---,0.00,33.00,VWS V14.00,2013-01-18 16:36:00,
2013-01-18 11:41:00,20.6,1.7,30.51,WNW,286,4.0,14.0,43,0.00,,---,0.00,35.00,VWS V14.00,2013-01-18 16:41:00,
2013-01-18 11:46:00,21.0,1.5,30.51,NNE,22,8.0,11.0,42,0.00,,---,0.00,35.00,VWS V14.00,2013-01-18 16:46:00,
2013-01-18 11:51:00,21.0,0.5,30.51,NNE,33,2.0,9.0,40,0.00,,---,0.00,35.00,VWS V14.00,2013-01-18 16:51:00,
2013-01-18 11:56:00,21.0,-0.1,30.51,North,355,3.0,7.0,39,0.00,,---,0.00,35.00,VWS V14.00,2013-01-18 16:56:00,
2013-01-18 12:01:00,21.1,1.1,30.50,NNW,333,15.0,15.0,41,0.00,,---,0.00,35.00,VWS V14.00,2013-01-18 17:01:00,
2013-01-18 12:06:00,21.1,0.0,30.51,NW,308,4.0,7.0,39,0.00,,---,0.00,35.00,VWS V14.00,2013-01-18 17:06:00,
2013-01-18 12:11:00,21.3,0.2,30.51,WNW,292,7.0,9.0,39,0.00,,---,0.00,35.00,VWS V14.00,2013-01-18 17:11:00,
2013-01-18 12:16:00,21.4,-0.8,30.51,WNW,298,4.0,12.0,37,0.00,,---,0.00,35.00,VWS V14.00,2013-01-18 17:16:00,
2013-01-18 12:21:00,21.6,-0.6,30.50,North,360,6.0,15.0,37,0.00,,---,0.00,107.00,VWS V14.00,2013-01-18 17:21:00,
2013-01-18 12:26:00,21.9,-0.9,30.50,NNW,331,7.0,11.0,36,0.00,,---,0.00,459.00,VWS V14.00,2013-01-18 17:26:00,
2013-01-18 12:31:00,22.4,0.6,30.51,West,278,4.0,5.0,38,0.00,,---,0.00,459.00,VWS V14.00,2013-01-18 17:31:00,
2013-01-18 12:36:00,22.5,-1.0,30.50,WNW,287,9.0,10.0,35,0.00,,---,0.00,459.00,VWS V14.00,2013-01-18 17:36:00,
2013-01-18 12:41:00,22.9,-0.1,30.51,NW,310,10.0,11.0,36,0.00,,---,0.00,457.00,VWS V14.00,2013-01-18 17:41:00,
2013-01-18 12:46:00,22.7,-1.4,30.51,WNW,290,9.0,10.0,34,0.00,,---,0.00,455.00,VWS V14.00,2013-01-18 17:46:00,
2013-01-18 12:51:00,23.2,0.8,30.51,West,265,7.0,11.0,37,0.00,,---,0.00,452.00,VWS V14.00,2013-01-18 17:51:00,
2013-01-18 12:56:00,23.6,1.2,30.52,WNW,302,5.0,5.0,37,0.00,,---,0.00,448.00,VWS V14.00,2013-01-18 17:56:00,
2013-01-18 13:01:00,23.6,0.6,30.51,WNW,302,3.0,10.0,36,0.00,,---,0.00,443.00,VWS V14.00,2013-01-18 18:01:00,
2013-01-18 13:06:00,23.5,0.5,30.52,NW,319,12.0,13.0,36,0.00,,---,0.00,439.00,VWS V14.00,2013-01-18 18:06:00,
2013-01-18 13:11:00,23.5,0.5,30.52,NNE,24,9.0,10.0,36,0.00,,---,0.00,436.00,VWS V14.00,2013-01-18 18:11:00,
2013-01-18 13:16:00,23.3,-0.9,30.52,NNW,336,4.0,5.0,34,0.00,,---,0.00,431.00,VWS V14.00,2013-01-18 18:16:00,
2013-01-18 13:21:00,23.0,-1.8,30.52,NW,311,5.0,6.0,33,0.00,,---,0.00,424.00,VWS V14.00,2013-01-18 18:21:00,
2013-01-18 13:26:00,23.2,-1.0,30.51,NNE,12,4.0,7.0,34,0.00,,---,0.00,422.00,VWS V14.00,2013-01-18 18:26:00,
2013-01-18 13:31:00,23.3,0.3,30.51,NNW,328,0.0,3.0,36,0.00,,---,0.00,413.00,VWS V14.00,2013-01-18 18:31:00,
2013-01-18 13:36:00,23.8,0.8,30.51,NW,321,7.0,7.0,36,0.00,,---,0.00,408.00,VWS V14.00,2013-01-18 18:36:00,
2013-01-18 13:41:00,24.2,0.5,30.51,North,5,6.0,7.0,35,0.00,,---,0.00,399.00,VWS V14.00,2013-01-18 18:41:00,
2013-01-18 13:46:00,24.2,1.1,30.52,WNW,300,6.0,12.0,36,0.00,,---,0.00,394.00,VWS V14.00,2013-01-18 18:46:00,
2013-01-18 13:51:00,24.1,-0.8,30.52,NNE,21,11.0,11.0,33,0.00,,---,0.00,385.00,VWS V14.00,2013-01-18 18:51:00,
2013-01-18 13:56:00,23.9,0.8,30.52,WNW,290,13.0,13.0,36,0.00,,---,0.00,376.00,VWS V14.00,2013-01-18 18:56:00,
2013-01-18 14:01:00,24.4,0.7,30.53,WNW,284,2.0,12.0,35,0.00,,---,0.00,369.00,VWS V14.00,2013-01-18 19:01:00,
2013-01-18 14:06:00,24.7,1.0,30.52,West,275,11.0,14.0,35,0.00,,---,0.00,362.00,VWS V14.00,2013-01-18 19:06:00,
2013-01-18 14:10:00,24.8,2.8,30.52,WNW,283,7.0,11.0,38,0.00,,---,0.00,352.00,VWS V14.00,2013-01-18 19:10:00,
2013-01-18 14:15:00,24.8,1.6,30.52,WNW,288,2.0,6.0,36,0.00,,---,0.00,343.00,VWS V14.00,2013-01-18 19:15:00,
2013-01-18 14:20:00,25.0,1.2,30.53,NW,317,1.0,7.0,35,0.00,,---,0.00,336.00,VWS V14.00,2013-01-18 19:20:00,
2013-01-18 14:25:00,24.8,1.6,30.53,WNW,297,12.0,12.0,36,0.00,,---,0.00,325.00,VWS V14.00,2013-01-18 19:25:00,
2013-01-18 14:31:00,24.4,1.3,30.53,NNW,346,6.0,8.0,36,0.00,,---,0.00,125.00,VWS V14.00,2013-01-18 19:31:00,
2013-01-18 14:36:00,24.2,1.7,30.53,NNW,327,6.0,11.0,37,0.00,,---,0.00,304.00,VWS V14.00,2013-01-18 19:36:00,
2013-01-18 14:41:00,24.4,2.5,30.53,WNW,290,3.0,7.0,38,0.00,,---,0.00,292.00,VWS V14.00,2013-01-18 19:41:00,
2013-01-18 14:46:00,24.7,2.2,30.52,NNW,334,2.0,6.0,37,0.00,,---,0.00,283.00,VWS V14.00,2013-01-18 19:46:00,
2013-01-18 14:51:00,24.8,1.6,30.52,WNW,301,4.0,6.0,36,0.00,,---,0.00,272.00,VWS V14.00,2013-01-18 19:51:00,
2013-01-18 14:56:00,24.7,1.0,30.52,NW,314,5.0,7.0,35,0.00,,---,0.00,262.00,VWS V14.00,2013-01-18 19:56:00,
2013-01-18 15:01:00,24.7,2.2,30.52,WNW,300,2.0,4.0,37,0.00,,---,0.00,251.00,VWS V14.00,2013-01-18 20:01:00,
2013-01-18 15:06:00,24.5,1.4,30.52,North,360,3.0,4.0,36,0.00,,---,0.00,239.00,VWS V14.00,2013-01-18 20:06:00,
2013-01-18 15:11:00,24.4,2.5,30.53,West,278,7.0,7.0,38,0.00,,---,0.00,227.00,VWS V14.00,2013-01-18 20:11:00,
2013-01-18 15:16:00,24.7,2.2,30.53,WNW,300,5.0,6.0,37,0.00,,---,0.00,214.00,VWS V14.00,2013-01-18 20:16:00,
2013-01-18 15:21:00,25.1,3.1,30.53,WNW,295,2.0,5.0,38,0.00,,---,0.00,204.00,VWS V14.00,2013-01-18 20:21:00,
2013-01-18 15:26:00,25.6,3.5,30.53,WNW,284,5.0,9.0,38,0.00,,---,0.00,192.00,VWS V14.00,2013-01-18 20:26:00,
2013-01-18 15:31:00,25.6,3.0,30.53,WNW,290,0.0,2.0,37,0.00,,---,0.00,181.00,VWS V14.00,2013-01-18 20:31:00,
2013-01-18 15:36:00,25.1,1.3,30.53,NNW,334,4.0,4.0,35,0.00,,---,0.00,169.00,VWS V14.00,2013-01-18 20:36:00,
2013-01-18 15:41:00,24.7,2.2,30.52,North,5,3.0,4.0,37,0.00,,---,0.00,156.00,VWS V14.00,2013-01-18 20:41:00,
2013-01-18 15:46:00,24.2,1.7,30.53,NNW,333,4.0,7.0,37,0.00,,---,0.00,132.00,VWS V14.00,2013-01-18 20:46:00,
2013-01-18 15:51:00,24.1,2.7,30.53,WNW,290,5.0,6.0,39,0.00,,---,0.00,67.00,VWS V14.00,2013-01-18 20:51:00,
2013-01-18 15:56:00,23.8,2.5,30.54,NW,319,1.0,2.0,39,0.00,,---,0.00,47.00,VWS V14.00,2013-01-18 20:56:00,
2013-01-18 16:01:00,23.8,2.5,30.54,West,275,4.0,10.0,39,0.00,,---,0.00,23.00,VWS V14.00,2013-01-18 21:01:00,
2013-01-18 16:06:00,23.6,2.8,30.54,NW,314,6.0,6.0,40,0.00,,---,0.00,21.00,VWS V14.00,2013-01-18 21:06:00,
2013-01-18 16:11:00,23.5,2.2,30.53,NW,306,2.0,5.0,39,0.00,,---,0.00,19.00,VWS V14.00,2013-01-18 21:11:00,
2013-01-18 16:16:00,23.5,2.2,30.53,WNW,284,2.0,4.0,39,0.00,,---,0.00,18.00,VWS V14.00,2013-01-18 21:16:00,
2013-01-18 16:21:00,23.3,3.1,30.54,NW,317,3.0,5.0,41,0.00,,---,0.00,16.00,VWS V14.00,2013-01-18 21:21:00,
2013-01-18 16:26:00,23.2,3.0,30.54,NW,310,2.0,4.0,41,0.00,,---,0.00,12.00,VWS V14.00,2013-01-18 21:26:00,
2013-01-18 16:31:00,23.2,3.0,30.55,WNW,294,3.0,4.0,41,0.00,,---,0.00,12.00,VWS V14.00,2013-01-18 21:31:00,
2013-01-18 16:36:00,23.0,2.8,30.55,West,274,5.0,5.0,41,0.00,,---,0.00,11.00,VWS V14.00,2013-01-18 21:36:00,
2013-01-18 16:41:00,22.9,2.2,30.55,West,278,3.0,4.0,40,0.00,,---,0.00,9.00,VWS V14.00,2013-01-18 21:41:00,
2013-01-18 16:46:00,22.9,2.7,30.55,West,259,2.0,5.0,41,0.00,,---,0.00,5.00,VWS V14.00,2013-01-18 21:46:00,
2013-01-18 16:51:00,22.9,2.7,30.55,WNW,286,1.0,7.0,41,0.00,,---,0.00,0.00,VWS V14.00,2013-01-18 21:51:00,
2013-01-18 16:56:00,22.7,2.5,30.55,WNW,285,3.0,3.0,41,0.00,,---,0.00,0.00,VWS V14.00,2013-01-18 21:56:00,
2013-01-18 17:01:00,22.5,2.9,30.55,WNW,290,2.0,3.0,42,0.00,,---,0.00,0.00,VWS V14.00,2013-01-18 22:01:00,
2013-01-18 17:06:00,22.4,2.8,30.55,WNW,290,3.0,4.0,42,0.00,,---,0.00,0.00,VWS V14.00,2013-01-18 22:06:00,
2013-01-18 17:11:00,22.2,3.6,30.55,WNW,284,3.0,5.0,44,0.00,,---,0.00,0.00,VWS V14.00,2013-01-18 22:11:00,
2013-01-18 17:16:00,22.1,3.0,30.55,WNW,284,2.0,2.0,43,0.00,,---,0.00,0.00,VWS V14.00,2013-01-18 22:16:00,
2013-01-18 17:21:00,22.1,4.0,30.55,WNW,283,0.0,2.0,45,0.00,,---,0.00,0.00,VWS V14.00,2013-01-18 22:21:00,
2013-01-18 17:26:00,21.9,3.8,30.56,WNW,283,0.0,3.0,45,0.00,,---,0.00,0.00,VWS V14.00,2013-01-18 22:26:00,
2013-01-18 17:31:00,21.8,3.7,30.57,WNW,283,1.0,2.0,45,0.00,,---,0.00,0.00,VWS V14.00,2013-01-18 22:31:00,
2013-01-18 17:36:00,21.8,4.2,30.57,WNW,283,0.0,0.0,46,0.00,,---,0.00,0.00,VWS V14.00,2013-01-18 22:36:00,
2013-01-18 17:41:00,21.4,3.8,30.57,WNW,283,0.0,0.0,46,0.00,,---,0.00,0.00,VWS V14.00,2013-01-18 22:41:00,
2013-01-18 17:46:00,21.4,3.4,30.58,WNW,283,2.0,3.0,45,0.00,,---,0.00,0.00,VWS V14.00,2013-01-18 22:46:00,
2013-01-18 17:51:00,21.3,3.8,30.58,West,269,2.0,3.0,46,0.00,,---,0.00,0.00,VWS V14.00,2013-01-18 22:51:00,
2013-01-18 17:56:00,21.3,3.8,30.58,West,273,2.0,2.0,46,0.00,,---,0.00,0.00,VWS V14.00,2013-01-18 22:56:00,
2013-01-18 18:01:00,21.1,4.0,30.59,West,273,0.0,1.0,47,0.00,,---,0.00,0.00,VWS V14.00,2013-01-18 23:01:00,
2013-01-18 18:06:00,21.1,3.6,30.59,West,273,1.0,2.0,46,0.00,,---,0.00,0.00,VWS V14.00,2013-01-18 23:06:00,
2013-01-18 18:11:00,21.0,3.9,30.59,West,273,0.0,1.0,47,0.00,,---,0.00,0.00,VWS V14.00,2013-01-18 23:11:00,
2013-01-18 18:16:00,21.0,3.9,30.59,West,273,0.0,3.0,47,0.00,,---,0.00,0.00,VWS V14.00,2013-01-18 23:16:00,
2013-01-18 18:21:00,21.0,3.9,30.60,West,273,0.0,3.0,47,0.00,,---,0.00,0.00,VWS V14.00,2013-01-18 23:21:00,
2013-01-18 18:26:00,20.8,4.2,30.60,West,273,1.0,3.0,48,0.00,,---,0.00,0.00,VWS V14.00,2013-01-18 23:26:00,
2013-01-18 18:31:00,20.8,4.7,30.60,West,273,2.0,3.0,49,0.00,,---,0.00,0.00,VWS V14.00,2013-01-18 23:31:00,
2013-01-18 18:36:00,20.6,4.0,30.60,West,268,3.0,4.0,48,0.00,,---,0.00,0.00,VWS V14.00,2013-01-18 23:36:00,
2013-01-18 18:41:00,20.6,4.0,30.60,West,267,2.0,2.0,48,0.00,,---,0.00,0.00,VWS V14.00,2013-01-18 23:41:00,
2013-01-18 18:46:00,20.6,4.5,30.60,West,266,1.0,3.0,49,0.00,,---,0.00,0.00,VWS V14.00,2013-01-18 23:46:00,
2013-01-18 18:51:00,20.6,4.5,30.60,WSW,254,1.0,2.0,49,0.00,,---,0.00,0.00,VWS V14.00,2013-01-18 23:51:00,
2013-01-18 18:56:00,20.6,4.5,30.60,WSW,240,1.0,4.0,49,0.00,,---,0.00,0.00,VWS V14.00,2013-01-18 23:56:00,
2013-01-18 19:01:00,20.6,4.5,30.60,SSW,198,0.0,0.0,49,0.00,,---,0.00,0.00,VWS V14.00,2013-01-19 00:01:00,
2013-01-18 19:06:00,20.5,5.3,30.60,SSW,198,0.0,2.0,51,0.00,,---,0.00,0.00,VWS V14.00,2013-01-19 00:06:00,
2013-01-18 19:11:00,20.3,4.6,30.61,SSW,198,0.0,4.0,50,0.00,,---,0.00,0.00,VWS V14.00,2013-01-19 00:11:00,
2013-01-18 19:16:00,20.2,4.6,30.61,SSW,201,2.0,2.0,50,0.00,,---,0.00,0.00,VWS V14.00,2013-01-19 00:16:00,
2013-01-18 19:21:00,20.2,5.0,30.60,SSW,203,3.0,3.0,51,0.00,,---,0.00,0.00,VWS V14.00,2013-01-19 00:21:00,
2013-01-18 19:26:00,20.0,4.8,30.61,SSW,207,4.0,5.0,51,0.00,,---,0.00,0.00,VWS V14.00,2013-01-19 00:26:00,
2013-01-18 19:31:00,20.2,5.0,30.60,SSW,211,0.0,0.0,51,0.00,,---,0.00,0.00,VWS V14.00,2013-01-19 00:31:00,
2013-01-18 19:36:00,20.0,5.2,30.60,SSW,211,0.0,1.0,52,0.00,,---,0.00,0.00,VWS V14.00,2013-01-19 00:36:00,
2013-01-18 19:41:00,19.9,5.5,30.60,SSW,208,2.0,2.0,53,0.00,,---,0.00,0.00,VWS V14.00,2013-01-19 00:41:00,
2013-01-18 19:46:00,19.7,5.3,30.60,SSW,194,1.0,5.0,53,0.00,,---,0.00,0.00,VWS V14.00,2013-01-19 00:46:00,
2013-01-18 19:51:00,19.5,5.2,30.60,SSW,193,1.0,3.0,53,0.00,,---,0.00,0.00,VWS V14.00,2013-01-19 00:51:00,
2013-01-18 19:56:00,19.4,5.1,30.60,South,188,0.0,4.0,53,0.00,,---,0.00,0.00,VWS V14.00,2013-01-19 00:56:00,
2013-01-18 20:01:00,19.4,5.1,30.60,South,183,2.0,4.0,53,0.00,,---,0.00,0.00,VWS V14.00,2013-01-19 01:01:00,
2013-01-18 20:06:00,19.2,5.3,30.60,South,173,2.0,3.0,54,0.00,,---,0.00,0.00,VWS V14.00,2013-01-19 01:06:00,
2013-01-18 20:11:00,19.2,5.3,30.60,South,172,2.0,2.0,54,0.00,,---,0.00,0.00,VWS V14.00,2013-01-19 01:11:00,
2013-01-18 20:16:00,19.1,5.6,30.60,South,187,1.0,3.0,55,0.00,,---,0.00,0.00,VWS V14.00,2013-01-19 01:16:00,
2013-01-18 20:21:00,19.1,6.0,30.59,SSE,157,4.0,5.0,56,0.00,,---,0.00,0.00,VWS V14.00,2013-01-19 01:21:00,
2013-01-18 20:26:00,19.1,5.6,30.59,SSE,163,1.0,3.0,55,0.00,,---,0.00,0.00,VWS V14.00,2013-01-19 01:26:00,
2013-01-18 20:31:00,19.1,5.2,30.60,SSE,163,0.0,1.0,54,0.00,,---,0.00,0.00,VWS V14.00,2013-01-19 01:31:00,
2013-01-18 20:36:00,19.1,5.6,30.59,SSE,163,0.0,3.0,55,0.00,,---,0.00,0.00,VWS V14.00,2013-01-19 01:36:00,
2013-01-18 20:41:00,19.1,5.2,30.60,SSE,158,3.0,4.0,54,0.00,,---,0.00,0.00,VWS V14.00,2013-01-19 01:41:00,
2013-01-18 20:46:00,18.9,5.8,30.59,SSE,159,3.0,3.0,56,0.00,,---,0.00,0.00,VWS V14.00,2013-01-19 01:46:00,
2013-01-18 20:51:00,18.8,5.3,30.59,South,173,4.0,5.0,55,0.00,,---,0.00,0.00,VWS V14.00,2013-01-19 01:51:00,
2013-01-18 20:56:00,18.9,5.4,30.59,South,175,2.0,2.0,55,0.00,,---,0.00,0.00,VWS V14.00,2013-01-19 01:56:00,
2013-01-18 21:01:00,19.1,5.2,30.59,South,182,0.0,0.0,54,0.00,,---,0.00,0.00,VWS V14.00,2013-01-19 02:01:00,
2013-01-18 21:06:00,19.2,4.9,30.59,South,180,0.0,0.0,53,0.00,,---,0.00,0.00,VWS V14.00,2013-01-19 02:06:00,
2013-01-18 21:11:00,19.2,5.3,30.59,South,172,0.0,0.0,54,0.00,,---,0.00,0.00,VWS V14.00,2013-01-19 02:11:00,
2013-01-18 21:16:00,19.2,5.3,30.59,South,188,3.0,3.0,54,0.00,,---,0.00,0.00,VWS V14.00,2013-01-19 02:16:00,
2013-01-18 21:21:00,19.2,5.3,30.59,South,182,4.0,6.0,54,0.00,,---,0.00,0.00,VWS V14.00,2013-01-19 02:21:00,
2013-01-18 21:26:00,19.4,5.1,30.58,SSE,165,2.0,3.0,53,0.00,,---,0.00,0.00,VWS V14.00,2013-01-19 02:26:00,
2013-01-18 21:32:00,19.5,5.6,30.57,SSE,154,6.0,6.0,54,0.00,,---,0.00,0.00,VWS V14.00,2013-01-19 02:32:00,
2013-01-18 21:37:00,19.7,5.3,30.57,South,187,3.0,7.0,53,0.00,,---,0.00,0.00,VWS V14.00,2013-01-19 02:37:00,
2013-01-18 21:42:00,19.9,5.5,30.56,South,175,8.0,10.0,53,0.00,,---,0.00,0.00,VWS V14.00,2013-01-19 02:42:00,
2013-01-18 21:47:00,20.2,5.4,30.56,SE,140,10.0,10.0,52,0.00,,---,0.00,0.00,VWS V14.00,2013-01-19 02:47:00,
2013-01-18 21:52:00,20.3,5.5,30.56,SSW,206,4.0,10.0,52,0.00,,---,0.00,0.00,VWS V14.00,2013-01-19 02:52:00,
2013-01-18 21:57:00,20.5,5.7,30.56,SE,144,5.0,5.0,52,0.00,,---,0.00,0.00,VWS V14.00,2013-01-19 02:57:00,
2013-01-18 22:02:00,20.5,5.7,30.56,SSE,156,1.0,4.0,52,0.00,,---,0.00,0.00,VWS V14.00,2013-01-19 03:02:00,
2013-01-18 22:07:00,20.3,5.5,30.56,SSE,148,2.0,3.0,52,0.00,,---,0.00,0.00,VWS V14.00,2013-01-19 03:07:00,
2013-01-18 22:12:00,20.3,5.5,30.56,SSW,193,0.0,3.0,52,0.00,,---,0.00,0.00,VWS V14.00,2013-01-19 03:12:00,
2013-01-18 22:17:00,20.2,5.8,30.56,SSW,202,1.0,5.0,53,0.00,,---,0.00,0.00,VWS V14.00,2013-01-19 03:17:00,
2013-01-18 22:22:00,20.0,5.6,30.56,South,181,0.0,2.0,53,0.00,,---,0.00,0.00,VWS V14.00,2013-01-19 03:22:00,
2013-01-18 22:27:00,20.0,6.0,30.56,South,170,1.0,4.0,54,0.00,,---,0.00,0.00,VWS V14.00,2013-01-19 03:27:00,
2013-01-18 22:32:00,20.0,6.0,30.56,SSE,153,2.0,5.0,54,0.00,,---,0.00,0.00,VWS V14.00,2013-01-19 03:32:00,
2013-01-18 22:37:00,20.2,6.6,30.56,South,183,1.0,3.0,55,0.00,,---,0.00,0.00,VWS V14.00,2013-01-19 03:37:00,
2013-01-18 22:42:00,20.2,6.6,30.56,SSE,165,0.0,4.0,55,0.00,,---,0.00,0.00,VWS V14.00,2013-01-19 03:42:00,
2013-01-18 22:47:00,20.2,6.6,30.55,South,171,0.0,4.0,55,0.00,,---,0.00,0.00,VWS V14.00,2013-01-19 03:47:00,
2013-01-18 22:52:00,20.0,6.8,30.55,SSW,200,1.0,2.0,56,0.00,,---,0.00,0.00,VWS V14.00,2013-01-19 03:52:00,
2013-01-18 22:57:00,20.0,6.8,30.55,SSE,157,0.0,4.0,56,0.00,,---,0.00,0.00,VWS V14.00,2013-01-19 03:57:00,
2013-01-18 23:02:00,20.0,7.2,30.55,SSE,165,5.0,5.0,57,0.00,,---,0.00,0.00,VWS V14.00,2013-01-19 04:02:00,
2013-01-18 23:07:00,20.3,7.5,30.55,South,188,2.0,4.0,57,0.00,,---,0.00,0.00,VWS V14.00,2013-01-19 04:07:00,
2013-01-18 23:12:00,20.5,7.7,30.55,South,182,5.0,6.0,57,0.00,,---,0.00,0.00,VWS V14.00,2013-01-19 04:12:00,
2013-01-18 23:17:00,20.8,7.6,30.55,SW,233,2.0,6.0,56,0.00,,---,0.00,0.00,VWS V14.00,2013-01-19 04:17:00,
2013-01-18 23:22:00,21.0,8.2,30.54,South,186,3.0,7.0,57,0.00,,---,0.00,0.00,VWS V14.00,2013-01-19 04:22:00,
2013-01-18 23:27:00,21.1,7.9,30.54,SSW,199,3.0,6.0,56,0.00,,---,0.00,0.00,VWS V14.00,2013-01-19 04:27:00,
2013-01-18 23:32:00,21.3,8.1,30.53,SSW,199,6.0,7.0,56,0.00,,---,0.00,0.00,VWS V14.00,2013-01-19 04:32:00,
2013-01-18 23:37:00,21.6,8.3,30.53,SSE,161,2.0,5.0,56,0.00,,---,0.00,0.00,VWS V14.00,2013-01-19 04:37:00,
2013-01-18 23:42:00,21.8,8.5,30.53,SSE,153,3.0,7.0,56,0.00,,---,0.00,0.00,VWS V14.00,2013-01-19 04:42:00,
2013-01-18 23:47:00,21.8,8.5,30.52,SSE,152,3.0,6.0,56,0.00,,---,0.00,0.00,VWS V14.00,2013-01-19 04:47:00,
2013-01-18 23:52:00,21.9,8.6,30.52,South,176,3.0,6.0,56,0.00,,---,0.00,0.00,VWS V14.00,2013-01-19 04:52:00,
2013-01-18 23:57:00,21.9,8.6,30.52,South,173,2.0,6.0,56,0.00,,---,0.00,0.00,VWS V14.00,2013-01-19 04:57:00,